Private Wetterstation Wechselburg
Wetterdaten: Dienstag, 27.07.2010
Datum Zeit Temp. +2m Bodentemp. Temp.+5cm Temp. Wind Windchill X Diff Temp. Feuchte +2m Feuchte +5cm Sonnenschein Luftdruck Regen Wind Richtung Richtung Sonnenschein UV Taupunkt Windchill Windben
27.07.2010 00:00 17,9 C 19,8 C 25,5 C 17,0 C 15,2 C 0,0 C 76 % 42 % 0 % 1012,3 hPa 0,0 l/m 1,8 km/h (1 Bft) W 270 0 min 0,0 UV-I 13,6 C 15,2 C 0,0 km/h (0 Bft)
27.07.2010 00:07 17,5 C 19,8 C 25,5 C 16,7 C 15,0 C 0,0 C 77 % 42 % 0 % 1012,3 hPa 0,0 l/m 0,0 km/h (0 Bft) N 0 0 min 0,0 UV-I 13,4 C 15,0 C 0,0 km/h (0 Bft)
27.07.2010 00:10 17,5 C 19,8 C 25,5 C 16,7 C 15,0 C 0,0 C 77 % 42 % 0 % 1012,3 hPa 0,0 l/m 0,0 km/h (0 Bft) W 270 0 min 0,0 UV-I 13,4 C 15,0 C 0,0 km/h (0 Bft)
27.07.2010 00:15 17,6 C 19,8 C 25,5 C 16,7 C 15,0 C 0,0 C 77 % 42 % 0 % 1012,3 hPa 0,0 l/m 0,3 km/h (0 Bft) S 180 0 min 0,0 UV-I 13,5 C 15,0 C 0,0 km/h (0 Bft)
27.07.2010 00:20 17,5 C 19,8 C 25,5 C 16,7 C 15,0 C 0,0 C 77 % 42 % 0 % 1012,1 hPa 0,0 l/m 0,3 km/h (0 Bft) NO 45 0 min 0,0 UV-I 13,4 C 15,0 C 0,0 km/h (0 Bft)
27.07.2010 00:25 17,2 C 19,8 C 25,5 C 16,5 C 15,0 C 0,0 C 78 % 42 % 0 % 1012,1 hPa 0,0 l/m 0,2 km/h (0 Bft) NO 45 0 min 0,0 UV-I 13,3 C 15,0 C 0,0 km/h (0 Bft)
27.07.2010 00:30 17,2 C 19,8 C 25,5 C 16,4 C 14,9 C 0,0 C 78 % 42 % 0 % 1012,1 hPa 0,0 l/m 0,0 km/h (0 Bft) NO 45 0 min 0,0 UV-I 13,3 C 14,9 C 0,0 km/h (0 Bft)
27.07.2010 00:35 17,1 C 19,8 C 25,5 C 16,4 C 14,9 C 0,0 C 78 % 42 % 0 % 1012,1 hPa 0,0 l/m 0,0 km/h (0 Bft) NO 45 0 min 0,0 UV-I 13,2 C 14,9 C 0,0 km/h (0 Bft)
27.07.2010 00:40 17,1 C 19,8 C 25,5 C 16,4 C 14,9 C 0,0 C 79 % 42 % 0 % 1012,1 hPa 0,0 l/m 0,2 km/h (0 Bft) SW 225 0 min 0,0 UV-I 13,4 C 14,9 C 3,2 km/h (1 Bft)
27.07.2010 00:45 17,2 C 19,8 C 25,5 C 16,4 C 14,9 C 0,0 C 79 % 42 % 0 % 1012,1 hPa 0,0 l/m 0,8 km/h (0 Bft) W-SW 247 0 min 0,0 UV-I 13,5 C 14,9 C 0,0 km/h (0 Bft)
27.07.2010 00:50 17,1 C 19,8 C 25,5 C 16,4 C 14,9 C 0,0 C 78 % 42 % 0 % 1012,1 hPa 0,0 l/m 0,8 km/h (0 Bft) W-SW 247 0 min 0,0 UV-I 13,2 C 14,9 C 0,0 km/h (0 Bft)
27.07.2010 00:55 17,1 C 19,8 C 25,5 C 16,3 C 14,8 C 0,0 C 79 % 42 % 0 % 1012,1 hPa 0,0 l/m 0,0 km/h (0 Bft) W-SW 247 0 min 0,0 UV-I 13,4 C 14,8 C 0,0 km/h (0 Bft)
27.07.2010 01:00 17,0 C 19,8 C 25,5 C 16,3 C 14,8 C 0,0 C 79 % 42 % 0 % 1012,1 hPa 0,0 l/m 0,0 km/h (0 Bft) W-SW 247 0 min 0,0 UV-I 13,3 C 14,8 C 0,0 km/h (0 Bft)
27.07.2010 01:07 16,9 C 19,8 C 25,5 C 16,2 C 14,7 C 0,0 C 79 % 42 % 0 % 1012,1 hPa 0,0 l/m 0,0 km/h (0 Bft) N 0 0 min 0,0 UV-I 13,2 C 14,7 C 0,0 km/h (0 Bft)
27.07.2010 01:10 16,9 C 19,8 C 25,5 C 16,2 C 14,7 C 0,0 C 79 % 42 % 0 % 1012,1 hPa 0,0 l/m 0,0 km/h (0 Bft) W-SW 247 0 min 0,0 UV-I 13,2 C 14,7 C 0,0 km/h (0 Bft)
27.07.2010 01:15 16,8 C 19,8 C 25,5 C 16,1 C 14,7 C 0,0 C 80 % 42 % 0 % 1012,1 hPa 0,0 l/m 0,0 km/h (0 Bft) W-SW 247 0 min 0,0 UV-I 13,3 C 14,7 C 0,0 km/h (0 Bft)
27.07.2010 01:20 16,7 C 19,8 C 25,5 C 16,0 C 14,6 C 0,0 C 80 % 42 % 0 % 1011,9 hPa 0,0 l/m 0,0 km/h (0 Bft) W-SW 247 0 min 0,0 UV-I 13,2 C 14,6 C 0,0 km/h (0 Bft)
27.07.2010 01:25 16,7 C 19,8 C 25,5 C 16,0 C 14,6 C 0,0 C 81 % 42 % 0 % 1011,9 hPa 0,0 l/m 0,0 km/h (0 Bft) W-SW 247 0 min 0,0 UV-I 13,4 C 14,6 C 0,0 km/h (0 Bft)
27.07.2010 01:30 16,6 C 19,8 C 25,5 C 15,9 C 14,5 C 0,0 C 82 % 42 % 0 % 1011,9 hPa 0,0 l/m 0,0 km/h (0 Bft) W-SW 247 0 min 0,0 UV-I 13,5 C 14,5 C 0,0 km/h (0 Bft)
27.07.2010 01:35 16,7 C 19,8 C 25,5 C 16,0 C 14,5 C 0,0 C 82 % 42 % 0 % 1011,9 hPa 0,0 l/m 0,0 km/h (0 Bft) W-SW 247 0 min 0,0 UV-I 13,6 C 14,5 C 0,0 km/h (0 Bft)
27.07.2010 01:40 16,8 C 19,8 C 25,5 C 16,0 C 14,4 C 0,0 C 82 % 42 % 0 % 1012,1 hPa 0,0 l/m 0,0 km/h (0 Bft) W-SW 247 0 min 0,0 UV-I 13,7 C 14,4 C 0,0 km/h (0 Bft)
27.07.2010 01:45 16,8 C 19,8 C 25,5 C 16,0 C 14,3 C 0,0 C 82 % 42 % 0 % 1012,1 hPa 0,0 l/m 0,0 km/h (0 Bft) W-SW 247 0 min 0,0 UV-I 13,7 C 14,3 C 0,0 km/h (0 Bft)
27.07.2010 01:50 16,7 C 19,8 C 25,5 C 15,9 C 14,2 C 0,0 C 81 % 42 % 0 % 1012,1 hPa 0,0 l/m 0,0 km/h (0 Bft) W-SW 247 0 min 0,0 UV-I 13,4 C 14,2 C 0,0 km/h (0 Bft)
27.07.2010 01:55 16,7 C 19,8 C 25,5 C 15,8 C 14,1 C 0,0 C 82 % 42 % 0 % 1012,1 hPa 0,0 l/m 0,0 km/h (0 Bft) W-SW 247 0 min 0,0 UV-I 13,6 C 14,1 C 0,0 km/h (0 Bft)
27.07.2010 02:00 16,6 C 19,8 C 25,5 C 15,8 C 14,1 C 0,0 C 82 % 42 % 0 % 1011,9 hPa 0,0 l/m 0,0 km/h (0 Bft) W-SW 247 0 min 0,0 UV-I 13,5 C 14,1 C 0,0 km/h (0 Bft)
27.07.2010 02:07 16,6 C 19,7 C 25,5 C 15,7 C 14,0 C 0,0 C 82 % 42 % 0 % 1011,9 hPa 0,0 l/m 0,0 km/h (0 Bft) N 0 0 min 0,0 UV-I 13,5 C 14,0 C 0,0 km/h (0 Bft)
27.07.2010 02:10 16,6 C 19,7 C 25,5 C 15,7 C 14,0 C 0,0 C 82 % 42 % 0 % 1011,9 hPa 0,0 l/m 0,0 km/h (0 Bft) W-SW 247 0 min 0,0 UV-I 13,5 C 14,0 C 0,0 km/h (0 Bft)
27.07.2010 02:15 16,7 C 19,7 C 25,5 C 15,8 C 13,9 C 0,0 C 82 % 42 % 0 % 1011,9 hPa 0,0 l/m 0,0 km/h (0 Bft) W-SW 247 0 min 0,0 UV-I 13,6 C 13,9 C 0,0 km/h (0 Bft)
27.07.2010 02:20 16,7 C 19,7 C 25,5 C 15,8 C 13,9 C 0,0 C 82 % 42 % 0 % 1012,1 hPa 0,0 l/m 0,0 km/h (0 Bft) W-SW 247 0 min 0,0 UV-I 13,6 C 13,9 C 0,0 km/h (0 Bft)
27.07.2010 02:25 16,5 C 19,7 C 25,5 C 15,6 C 13,9 C 0,0 C 82 % 42 % 0 % 1012,1 hPa 0,0 l/m 0,0 km/h (0 Bft) W-SW 247 0 min 0,0 UV-I 13,4 C 13,9 C 0,0 km/h (0 Bft)
27.07.2010 02:30 16,5 C 19,8 C 25,5 C 15,6 C 13,9 C 0,0 C 83 % 42 % 0 % 1012,1 hPa 0,0 l/m 0,2 km/h (0 Bft) SW 225 0 min 0,0 UV-I 13,6 C 13,9 C 2,1 km/h (1 Bft)
27.07.2010 02:35 16,7 C 19,8 C 25,5 C 15,8 C 14,0 C 0,0 C 83 % 42 % 0 % 1012,1 hPa 0,0 l/m 1,0 km/h (0 Bft) SW 225 0 min 0,0 UV-I 13,8 C 14,0 C 2,1 km/h (1 Bft)
27.07.2010 02:40 16,5 C 19,9 C 25,5 C 15,6 C 13,9 C 0,0 C 83 % 42 % 0 % 1011,9 hPa 0,0 l/m 0,8 km/h (0 Bft) SW 225 0 min 0,0 UV-I 13,6 C 13,9 C 0,0 km/h (0 Bft)
27.07.2010 02:45 16,4 C 19,9 C 25,5 C 15,6 C 13,9 C 0,0 C 83 % 42 % 0 % 1011,9 hPa 0,0 l/m 0,2 km/h (0 Bft) S-SW 202 0 min 0,0 UV-I 13,5 C 13,9 C 1,9 km/h (1 Bft)
27.07.2010 02:50 16,5 C 19,7 C 25,5 C 15,6 C 13,9 C 0,0 C 83 % 42 % 0 % 1011,9 hPa 0,0 l/m 0,2 km/h (0 Bft) W-SW 247 0 min 0,0 UV-I 13,6 C 13,9 C 0,0 km/h (0 Bft)
27.07.2010 02:55 16,4 C 19,8 C 25,5 C 15,5 C 13,8 C 0,0 C 83 % 42 % 0 % 1011,9 hPa 0,0 l/m 0,2 km/h (0 Bft) W-SW 247 0 min 0,0 UV-I 13,5 C 13,8 C 0,0 km/h (0 Bft)
27.07.2010 03:00 16,4 C 19,8 C 25,5 C 15,5 C 13,7 C 0,0 C 83 % 42 % 0 % 1011,9 hPa 0,0 l/m 0,2 km/h (0 Bft) W-SW 247 0 min 0,0 UV-I 13,5 C 13,7 C 0,0 km/h (0 Bft)
27.07.2010 03:10 16,2 C 19,8 C 25,5 C 15,3 C 13,6 C 0,0 C 83 % 42 % 0 % 1011,9 hPa 0,0 l/m 0,3 km/h (0 Bft) SW 225 0 min 0,0 UV-I 13,3 C 13,6 C 0,0 km/h (0 Bft)
27.07.2010 03:15 16,0 C 19,8 C 25,5 C 15,2 C 13,5 C 0,0 C 83 % 42 % 0 % 1011,9 hPa 0,0 l/m 0,0 km/h (0 Bft) SW 225 0 min 0,0 UV-I 13,1 C 13,5 C 0,0 km/h (0 Bft)
27.07.2010 03:20 16,0 C 19,8 C 25,5 C 15,2 C 13,5 C 0,0 C 83 % 42 % 0 % 1011,9 hPa 0,0 l/m 0,0 km/h (0 Bft) SW 225 0 min 0,0 UV-I 13,1 C 13,5 C 0,0 km/h (0 Bft)
27.07.2010 03:25 15,9 C 19,8 C 25,5 C 15,1 C 13,5 C 0,0 C 84 % 42 % 0 % 1011,9 hPa 0,0 l/m 0,0 km/h (0 Bft) SW 225 0 min 0,0 UV-I 13,2 C 13,5 C 0,0 km/h (0 Bft)
27.07.2010 03:30 15,9 C 19,8 C 25,5 C 15,1 C 13,5 C 0,0 C 85 % 42 % 0 % 1011,9 hPa 0,0 l/m 0,0 km/h (0 Bft) SW 225 0 min 0,0 UV-I 13,4 C 13,5 C 0,0 km/h (0 Bft)
27.07.2010 03:35 15,9 C 19,8 C 25,5 C 15,1 C 13,5 C 0,0 C 84 % 42 % 0 % 1011,9 hPa 0,0 l/m 0,0 km/h (0 Bft) SW 225 0 min 0,0 UV-I 13,2 C 13,5 C 0,0 km/h (0 Bft)
27.07.2010 03:40 15,9 C 19,8 C 25,5 C 15,1 C 13,5 C 0,0 C 84 % 42 % 0 % 1011,9 hPa 0,0 l/m 0,0 km/h (0 Bft) SW 225 0 min 0,0 UV-I 13,2 C 13,5 C 0,0 km/h (0 Bft)
27.07.2010 03:45 15,7 C 19,9 C 25,5 C 15,0 C 13,5 C 0,0 C 85 % 42 % 0 % 1011,9 hPa 0,0 l/m 0,0 km/h (0 Bft) SW 225 0 min 0,0 UV-I 13,2 C 13,5 C 0,0 km/h (0 Bft)
27.07.2010 03:50 15,7 C 19,9 C 25,5 C 15,0 C 13,5 C 0,0 C 85 % 42 % 0 % 1011,9 hPa 0,0 l/m 0,0 km/h (0 Bft) SW 225 0 min 0,0 UV-I 13,2 C 13,5 C 0,0 km/h (0 Bft)
27.07.2010 03:55 15,7 C 19,9 C 25,5 C 15,0 C 13,5 C 0,0 C 85 % 42 % 0 % 1011,9 hPa 0,0 l/m 0,0 km/h (0 Bft) SW 225 0 min 0,0 UV-I 13,2 C 13,5 C 0,0 km/h (0 Bft)
27.07.2010 04:00 15,9 C 19,8 C 25,5 C 15,1 C 13,5 C 0,0 C 85 % 42 % 0 % 1011,9 hPa 0,0 l/m 0,0 km/h (0 Bft) SW 225 0 min 0,0 UV-I 13,4 C 13,5 C 0,0 km/h (0 Bft)
27.07.2010 04:10 15,9 C 19,8 C 25,5 C 15,0 C 13,3 C 0,0 C 85 % 42 % 0 % 1011,9 hPa 0,0 l/m 0,0 km/h (0 Bft) SW 225 0 min 0,0 UV-I 13,4 C 13,3 C 0,0 km/h (0 Bft)
27.07.2010 04:15 15,9 C 19,8 C 25,5 C 15,0 C 13,3 C 0,0 C 85 % 42 % 0 % 1011,9 hPa 0,0 l/m 0,0 km/h (0 Bft) SW 225 0 min 0,0 UV-I 13,4 C 13,3 C 0,0 km/h (0 Bft)
27.07.2010 04:20 15,9 C 19,8 C 25,5 C 15,0 C 13,3 C 0,0 C 85 % 42 % 0 % 1012,2 hPa 0,0 l/m 0,0 km/h (0 Bft) SW 225 0 min 0,0 UV-I 13,4 C 13,3 C 0,0 km/h (0 Bft)
27.07.2010 04:25 15,7 C 19,8 C 25,5 C 14,9 C 13,3 C 0,0 C 84 % 42 % 0 % 1012,2 hPa 0,0 l/m 0,0 km/h (0 Bft) SW 225 0 min 0,0 UV-I 13,0 C 13,3 C 0,0 km/h (0 Bft)
27.07.2010 04:30 15,6 C 19,8 C 25,5 C 14,8 C 13,3 C 0,0 C 84 % 42 % 0 % 1012,2 hPa 0,0 l/m 0,0 km/h (0 Bft) SW 225 0 min 0,0 UV-I 12,9 C 13,3 C 0,0 km/h (0 Bft)
27.07.2010 04:35 15,7 C 19,8 C 25,5 C 14,9 C 13,2 C 0,0 C 85 % 42 % 0 % 1012,2 hPa 0,0 l/m 0,0 km/h (0 Bft) SW 225 0 min 0,0 UV-I 13,2 C 13,2 C 0,0 km/h (0 Bft)
27.07.2010 04:40 15,6 C 19,8 C 25,5 C 14,8 C 13,2 C 0,0 C 84 % 42 % 0 % 1011,9 hPa 0,0 l/m 0,0 km/h (0 Bft) SW 225 0 min 0,0 UV-I 12,9 C 13,2 C 0,0 km/h (0 Bft)
27.07.2010 04:45 15,5 C 19,8 C 25,5 C 14,8 C 13,3 C 0,0 C 85 % 42 % 0 % 1011,9 hPa 0,0 l/m 0,0 km/h (0 Bft) SW 225 0 min 0,0 UV-I 13,0 C 13,3 C 0,0 km/h (0 Bft)
27.07.2010 04:50 15,6 C 19,8 C 25,5 C 14,8 C 13,3 C 0,0 C 85 % 42 % 0 % 1011,9 hPa 0,0 l/m 0,0 km/h (0 Bft) SW 225 0 min 0,0 UV-I 13,1 C 13,3 C 0,0 km/h (0 Bft)
27.07.2010 04:55 15,6 C 19,8 C 25,5 C 14,8 C 13,3 C 0,0 C 85 % 42 % 0 % 1011,9 hPa 0,0 l/m 0,0 km/h (0 Bft) SW 225 0 min 0,0 UV-I 13,1 C 13,3 C 0,0 km/h (0 Bft)
27.07.2010 05:00 15,6 C 19,7 C 25,5 C 14,8 C 13,3 C 0,0 C 85 % 42 % 0 % 1011,9 hPa 0,0 l/m 0,0 km/h (0 Bft) W-SW 247 0 min 0,0 UV-I 13,1 C 13,3 C 0,0 km/h (0 Bft)
27.07.2010 05:08 15,4 C 19,7 C 25,5 C 14,7 C 13,2 C 0,0 C 85 % 42 % 0 % 1011,9 hPa 0,0 l/m 0,0 km/h (0 Bft) SW 225 0 min 0,0 UV-I 12,9 C 13,2 C 0,0 km/h (0 Bft)
27.07.2010 05:10 15,4 C 19,7 C 25,5 C 14,7 C 13,2 C 0,0 C 85 % 42 % 0 % 1011,9 hPa 0,0 l/m 0,0 km/h (0 Bft) SW 225 0 min 0,0 UV-I 12,9 C 13,2 C 0,0 km/h (0 Bft)
27.07.2010 05:15 15,7 C 19,6 C 25,5 C 14,9 C 13,2 C 0,0 C 85 % 42 % 0 % 1011,9 hPa 0,0 l/m 0,0 km/h (0 Bft) SW 225 0 min 0,0 UV-I 13,2 C 13,2 C 0,0 km/h (0 Bft)
27.07.2010 05:20 15,7 C 19,6 C 25,5 C 14,9 C 13,2 C 0,0 C 85 % 42 % 0 % 1012,3 hPa 0,0 l/m 0,0 km/h (0 Bft) SW 225 0 min 0,0 UV-I 13,2 C 13,2 C 0,0 km/h (0 Bft)
27.07.2010 05:25 15,7 C 19,7 C 25,5 C 14,8 C 13,1 C 0,0 C 85 % 42 % 0 % 1012,3 hPa 0,0 l/m 0,0 km/h (0 Bft) SW 225 0 min 0,0 UV-I 13,2 C 13,1 C 0,0 km/h (0 Bft)
27.07.2010 05:30 15,6 C 19,7 C 25,5 C 14,8 C 13,1 C 0,0 C 85 % 42 % 0 % 1012,3 hPa 0,0 l/m 0,0 km/h (0 Bft) SW 225 0 min 0,0 UV-I 13,1 C 13,1 C 0,0 km/h (0 Bft)
27.07.2010 05:35 15,6 C 19,7 C 25,5 C 14,8 C 13,1 C 0,0 C 85 % 42 % 0 % 1012,3 hPa 0,0 l/m 0,0 km/h (0 Bft) SW 225 0 min 0,0 UV-I 13,1 C 13,1 C 0,0 km/h (0 Bft)
27.07.2010 05:40 15,7 C 19,7 C 25,5 C 14,8 C 13,1 C 0,0 C 85 % 42 % 0 % 1012,2 hPa 0,0 l/m 0,0 km/h (0 Bft) SW 225 0 min 0,0 UV-I 13,2 C 13,1 C 0,0 km/h (0 Bft)
27.07.2010 05:45 15,5 C 19,7 C 25,5 C 14,7 C 13,0 C 0,0 C 85 % 42 % 0 % 1012,2 hPa 0,0 l/m 0,0 km/h (0 Bft) SW 225 0 min 0,0 UV-I 13,0 C 13,0 C 0,0 km/h (0 Bft)
27.07.2010 05:50 15,5 C 19,7 C 25,5 C 14,6 C 12,9 C 0,0 C 85 % 42 % 0 % 1012,2 hPa 0,0 l/m 0,0 km/h (0 Bft) SW 225 0 min 0,0 UV-I 13,0 C 12,9 C 0,0 km/h (0 Bft)
27.07.2010 05:55 15,3 C 19,7 C 25,5 C 14,5 C 12,9 C 0,0 C 85 % 42 % 0 % 1012,2 hPa 0,0 l/m 0,0 km/h (0 Bft) SW 225 0 min 0,0 UV-I 12,8 C 12,9 C 0,0 km/h (0 Bft)
27.07.2010 06:00 15,2 C 19,7 C 25,5 C 14,5 C 13,0 C 0,0 C 85 % 42 % 0 % 1012,4 hPa 0,0 l/m 0,0 km/h (0 Bft) SW 225 0 min 0,0 UV-I 12,7 C 13,0 C 0,0 km/h (0 Bft)
27.07.2010 06:07 15,5 C 19,6 C 25,5 C 14,6 C 12,9 C 0,0 C 86 % 42 % 0 % 1012,4 hPa 0,0 l/m 0,0 km/h (0 Bft) N 0 0 min 0,0 UV-I 13,2 C 12,9 C 0,0 km/h (0 Bft)
27.07.2010 06:10 15,5 C 19,6 C 25,5 C 14,6 C 12,9 C 0,0 C 86 % 42 % 0 % 1012,4 hPa 0,0 l/m 0,0 km/h (0 Bft) W-SW 247 0 min 0,0 UV-I 13,2 C 12,9 C 0,0 km/h (0 Bft)
27.07.2010 06:15 15,5 C 19,5 C 25,5 C 14,7 C 13,0 C 0,0 C 86 % 42 % 0 % 1012,4 hPa 0,0 l/m 0,0 km/h (0 Bft) W-SW 247 0 min 0,0 UV-I 13,2 C 13,0 C 0,0 km/h (0 Bft)
27.07.2010 06:20 15,5 C 19,5 C 25,5 C 14,7 C 13,0 C 0,0 C 85 % 42 % 0 % 1012,4 hPa 0,0 l/m 0,0 km/h (0 Bft) SW 225 0 min 0,0 UV-I 13,0 C 13,0 C 0,0 km/h (0 Bft)
27.07.2010 06:25 15,4 C 19,6 C 25,5 C 14,6 C 13,0 C 0,0 C 85 % 42 % 0 % 1012,4 hPa 0,0 l/m 0,0 km/h (0 Bft) SW 225 0 min 0,0 UV-I 12,9 C 13,0 C 0,0 km/h (0 Bft)
27.07.2010 06:30 15,5 C 19,6 C 25,5 C 14,7 C 13,0 C 0,0 C 85 % 42 % 0 % 1012,4 hPa 0,0 l/m 0,0 km/h (0 Bft) SW 225 0 min 0,0 UV-I 13,0 C 13,0 C 0,0 km/h (0 Bft)
27.07.2010 06:35 15,9 C 19,5 C 25,5 C 15,0 C 13,1 C 0,0 C 85 % 42 % 0 % 1012,4 hPa 0,0 l/m 0,0 km/h (0 Bft) S 180 0 min 0,0 UV-I 13,4 C 13,1 C 0,0 km/h (0 Bft)
27.07.2010 06:40 16,0 C 19,5 C 25,5 C 15,1 C 13,2 C 0,0 C 84 % 42 % 0 % 1012,2 hPa 0,0 l/m 0,0 km/h (0 Bft) SW 225 0 min 0,0 UV-I 13,3 C 13,2 C 0,0 km/h (0 Bft)
27.07.2010 06:45 16,5 C 19,4 C 14,4 C 15,5 C 13,4 C 0,0 C 84 % 80 % 0 % 1012,2 hPa 0,0 l/m 0,0 km/h (0 Bft) S 180 0 min 0,0 UV-I 13,8 C 13,4 C 0,0 km/h (0 Bft)
27.07.2010 06:50 16,5 C 19,4 C 14,4 C 15,5 C 13,5 C 0,0 C 83 % 79 % 0 % 1012,2 hPa 0,0 l/m 0,0 km/h (0 Bft) W-SW 247 0 min 0,0 UV-I 13,6 C 13,5 C 0,0 km/h (0 Bft)
27.07.2010 06:55 16,6 C 19,4 C 14,5 C 15,7 C 13,8 C 0,0 C 83 % 79 % 0 % 1012,2 hPa 0,0 l/m 0,0 km/h (0 Bft) S-SO 157 0 min 0,0 UV-I 13,7 C 13,8 C 0,0 km/h (0 Bft)
27.07.2010 07:00 16,6 C 19,4 C 14,5 C 15,7 C 13,9 C 0,0 C 82 % 79 % 0 % 1012,7 hPa 0,0 l/m 0,0 km/h (0 Bft) SW 225 0 min 0,0 UV-I 13,5 C 13,9 C 0,0 km/h (0 Bft)
27.07.2010 07:10 17,5 C 19,4 C 14,5 C 16,9 C 15,6 C 0,0 C 81 % 79 % 0 % 1012,7 hPa 0,0 l/m 0,0 km/h (0 Bft) S 180 0 min 0,0 UV-I 14,2 C 15,6 C 0,0 km/h (0 Bft)
27.07.2010 07:15 18,5 C 19,3 C 14,7 C 18,3 C 18,0 C 0,0 C 78 % 79 % 0 % 1012,7 hPa 0,0 l/m 0,0 km/h (0 Bft) S 180 0 min 0,0 UV-I 14,6 C 18,0 C 0,0 km/h (0 Bft)
27.07.2010 07:20 18,7 C 19,4 C 14,5 C 18,9 C 18,9 C 0,2 C 77 % 78 % 5 % 1012,9 hPa 0,0 l/m 0,0 km/h (0 Bft) S 180 0 min 0,0 UV-I 14,6 C 18,9 C 0,0 km/h (0 Bft)
27.07.2010 07:25 18,8 C 19,2 C 14,7 C 19,6 C 19,6 C 0,8 C 76 % 78 % 21 % 1012,9 hPa 0,0 l/m 0,0 km/h (0 Bft) S 180 0 min 0,0 UV-I 14,5 C 19,6 C 0,0 km/h (0 Bft)
27.07.2010 07:30 18,5 C 19,2 C 14,7 C 20,1 C 20,1 C 1,6 C 76 % 78 % 42 % 1012,9 hPa 0,0 l/m 0,0 km/h (0 Bft) S 180 0 min 0,0 UV-I 14,2 C 20,1 C 0,0 km/h (0 Bft)
27.07.2010 07:35 18,1 C 19,2 C 14,7 C 21,0 C 21,0 C 2,9 C 77 % 79 % 76 % 1012,9 hPa 0,0 l/m 0,0 km/h (0 Bft) S 180 0 min 0,0 UV-I 14,0 C 21,0 C 0,0 km/h (0 Bft)
27.07.2010 07:40 18,0 C 19,2 C 14,7 C 21,2 C 21,2 C 3,2 C 77 % 78 % 84 % 1013,1 hPa 0,0 l/m 0,0 km/h (0 Bft) S 180 5 min 0,1 UV-I 13,9 C 21,2 C 0,0 km/h (0 Bft)
27.07.2010 07:45 17,9 C 19,2 C 14,9 C 22,1 C 22,1 C 4,2 C 77 % 78 % 100 % 1013,1 hPa 0,0 l/m 0,0 km/h (0 Bft) S 180 5 min 0,1 UV-I 13,8 C 22,1 C 0,0 km/h (0 Bft)
27.07.2010 07:50 17,7 C 19,2 C 14,9 C 22,8 C 22,8 C 5,1 C 77 % 78 % 100 % 1013,1 hPa 0,0 l/m 0,0 km/h (0 Bft) S 180 5 min 0,1 UV-I 13,6 C 22,8 C 0,0 km/h (0 Bft)
27.07.2010 07:55 17,9 C 19,2 C 15,1 C 23,7 C 23,7 C 5,8 C 77 % 78 % 100 % 1013,1 hPa 0,0 l/m 0,0 km/h (0 Bft) S-SW 202 5 min 0,1 UV-I 13,8 C 23,7 C 0,0 km/h (0 Bft)
27.07.2010 08:00 17,9 C 19,2 C 15,1 C 24,1 C 24,1 C 6,2 C 77 % 78 % 100 % 1012,9 hPa 0,0 l/m 0,0 km/h (0 Bft) W 270 5 min 0,1 UV-I 13,8 C 24,1 C 0,0 km/h (0 Bft)
27.07.2010 08:10 17,7 C 19,2 C 15,3 C 25,1 C 25,1 C 7,4 C 78 % 78 % 100 % 1012,9 hPa 0,0 l/m 0,0 km/h (0 Bft) S 180 10 min 0,2 UV-I 13,8 C 25,1 C 0,0 km/h (0 Bft)
27.07.2010 08:15 18,1 C 19,1 C 15,3 C 25,3 C 25,3 C 7,2 C 78 % 77 % 100 % 1012,9 hPa 0,0 l/m 0,0 km/h (0 Bft) W-SW 247 5 min 0,2 UV-I 14,2 C 25,3 C 0,0 km/h (0 Bft)
27.07.2010 08:20 18,0 C 19,1 C 15,5 C 25,4 C 25,4 C 7,4 C 77 % 78 % 100 % 1013,2 hPa 0,0 l/m 0,0 km/h (0 Bft) N 360 5 min 0,2 UV-I 13,9 C 25,4 C 0,0 km/h (0 Bft)
27.07.2010 08:25 18,3 C 19,1 C 15,5 C 25,8 C 25,8 C 7,5 C 77 % 78 % 100 % 1013,2 hPa 0,0 l/m 0,0 km/h (0 Bft) SO 135 5 min 0,3 UV-I 14,2 C 25,8 C 0,0 km/h (0 Bft)
27.07.2010 08:30 18,1 C 19,1 C 15,5 C 26,1 C 26,1 C 8,0 C 78 % 78 % 100 % 1013,2 hPa 0,0 l/m 0,0 km/h (0 Bft) S 180 5 min 0,4 UV-I 14,2 C 26,1 C 0,0 km/h (0 Bft)
27.07.2010 08:35 18,1 C 19,1 C 15,7 C 25,9 C 25,9 C 7,8 C 78 % 78 % 100 % 1013,2 hPa 0,0 l/m 0,0 km/h (0 Bft) W-SW 247 5 min 0,4 UV-I 14,2 C 25,9 C 0,0 km/h (0 Bft)
27.07.2010 08:40 18,1 C 19,1 C 15,7 C 26,0 C 26,0 C 7,9 C 78 % 77 % 100 % 1013,4 hPa 0,0 l/m 0,0 km/h (0 Bft) S-SO 157 5 min 0,4 UV-I 14,2 C 26,0 C 0,0 km/h (0 Bft)
27.07.2010 08:45 18,2 C 19,1 C 15,8 C 26,1 C 26,1 C 7,9 C 78 % 77 % 100 % 1013,4 hPa 0,0 l/m 0,0 km/h (0 Bft) S 180 5 min 0,5 UV-I 14,3 C 26,1 C 0,0 km/h (0 Bft)
27.07.2010 08:50 18,3 C 19,1 C 15,9 C 26,2 C 26,2 C 7,9 C 78 % 76 % 100 % 1013,4 hPa 0,0 l/m 0,0 km/h (0 Bft) S 180 5 min 0,5 UV-I 14,4 C 26,2 C 0,0 km/h (0 Bft)
27.07.2010 08:55 18,3 C 19,1 C 16,0 C 26,7 C 26,7 C 8,4 C 78 % 77 % 100 % 1013,4 hPa 0,0 l/m 0,0 km/h (0 Bft) S 180 5 min 0,5 UV-I 14,4 C 26,7 C 0,0 km/h (0 Bft)
27.07.2010 09:00 18,3 C 19,1 C 16,2 C 27,0 C 27,0 C 8,7 C 77 % 76 % 100 % 1013,6 hPa 0,0 l/m 0,0 km/h (0 Bft) S-SW 202 5 min 0,6 UV-I 14,2 C 27,0 C 0,0 km/h (0 Bft)
27.07.2010 09:10 18,5 C 19,1 C 16,5 C 26,6 C 26,6 C 8,1 C 77 % 75 % 100 % 1013,6 hPa 0,0 l/m 0,0 km/h (0 Bft) W-SW 247 10 min 0,7 UV-I 14,4 C 26,6 C 0,0 km/h (0 Bft)
27.07.2010 09:15 18,5 C 19,0 C 16,7 C 26,3 C 26,3 C 7,8 C 77 % 72 % 100 % 1013,6 hPa 0,0 l/m 0,0 km/h (0 Bft) S 180 5 min 0,8 UV-I 14,4 C 26,3 C 0,0 km/h (0 Bft)
27.07.2010 09:20 18,5 C 19,0 C 16,8 C 26,1 C 26,1 C 7,6 C 76 % 72 % 100 % 1013,5 hPa 0,0 l/m 0,0 km/h (0 Bft) W-SW 247 5 min 0,9 UV-I 14,2 C 26,1 C 0,0 km/h (0 Bft)
27.07.2010 09:25 18,5 C 19,0 C 16,9 C 26,3 C 26,3 C 7,8 C 75 % 72 % 100 % 1013,5 hPa 0,0 l/m 0,0 km/h (0 Bft) W-SW 247 5 min 0,9 UV-I 14,0 C 26,3 C 0,0 km/h (0 Bft)
27.07.2010 09:30 18,7 C 19,0 C 16,8 C 26,3 C 26,3 C 7,6 C 75 % 71 % 100 % 1013,5 hPa 0,0 l/m 0,0 km/h (0 Bft) W-SW 247 5 min 1,0 UV-I 14,2 C 26,3 C 0,0 km/h (0 Bft)
27.07.2010 09:35 18,7 C 19,0 C 17,1 C 26,1 C 26,1 C 7,4 C 75 % 70 % 100 % 1013,5 hPa 0,0 l/m 0,0 km/h (0 Bft) O-NO 67 5 min 1,1 UV-I 14,2 C 26,1 C 0,0 km/h (0 Bft)
27.07.2010 09:40 18,8 C 19,0 C 17,1 C 26,3 C 26,3 C 7,5 C 75 % 71 % 100 % 1013,7 hPa 0,0 l/m 0,0 km/h (0 Bft) S 180 5 min 1,2 UV-I 14,3 C 26,3 C 0,0 km/h (0 Bft)
27.07.2010 09:45 18,9 C 19,0 C 17,2 C 26,4 C 26,4 C 7,5 C 75 % 70 % 100 % 1013,7 hPa 0,0 l/m 0,0 km/h (0 Bft) W-NW 292 5 min 1,1 UV-I 14,4 C 26,4 C 0,0 km/h (0 Bft)
27.07.2010 09:50 19,0 C 19,0 C 17,4 C 26,4 C 26,4 C 7,4 C 74 % 70 % 100 % 1013,7 hPa 0,0 l/m 0,0 km/h (0 Bft) SW 225 5 min 0,9 UV-I 14,3 C 26,4 C 0,0 km/h (0 Bft)
27.07.2010 09:55 19,2 C 19,1 C 17,4 C 26,9 C 26,9 C 7,7 C 74 % 70 % 100 % 1013,7 hPa 0,0 l/m 0,0 km/h (0 Bft) W 270 5 min 0,9 UV-I 14,4 C 26,9 C 0,0 km/h (0 Bft)
27.07.2010 10:00 19,2 C 18,9 C 17,6 C 26,4 C 26,4 C 7,2 C 73 % 68 % 100 % 1013,8 hPa 0,0 l/m 1,8 km/h (1 Bft) O-SO 112 5 min 0,9 UV-I 14,2 C 26,4 C 7,6 km/h (2 Bft)
27.07.2010 10:10 19,4 C 18,9 C 17,9 C 25,1 C 25,1 C 5,7 C 73 % 67 % 100 % 1013,8 hPa 0,0 l/m 3,1 km/h (1 Bft) W-SW 247 10 min 1,0 UV-I 14,4 C 25,1 C 8,7 km/h (2 Bft)
27.07.2010 10:15 19,5 C 18,9 C 18,0 C 24,7 C 24,7 C 5,2 C 72 % 67 % 100 % 1013,8 hPa 0,0 l/m 2,1 km/h (1 Bft) NW 315 5 min 1,0 UV-I 14,3 C 24,7 C 0,0 km/h (0 Bft)
27.07.2010 10:20 19,6 C 18,9 C 18,1 C 25,4 C 25,4 C 5,8 C 72 % 66 % 100 % 1014,1 hPa 0,0 l/m 1,3 km/h (1 Bft) N-NW 337 5 min 1,1 UV-I 14,4 C 25,4 C 0,0 km/h (0 Bft)
27.07.2010 10:25 19,8 C 19,0 C 18,1 C 26,4 C 26,4 C 6,6 C 72 % 67 % 100 % 1014,1 hPa 0,0 l/m 1,4 km/h (1 Bft) S-SO 157 5 min 1,1 UV-I 14,6 C 26,4 C 2,4 km/h (1 Bft)
27.07.2010 10:30 19,8 C 19,0 C 18,3 C 26,6 C 26,6 C 6,8 C 72 % 67 % 100 % 1014,1 hPa 0,0 l/m 1,9 km/h (1 Bft) S 180 5 min 1,1 UV-I 14,6 C 26,6 C 2,1 km/h (1 Bft)
27.07.2010 10:35 20,0 C 19,0 C 18,6 C 26,6 C 26,6 C 6,6 C 70 % 64 % 100 % 1014,1 hPa 0,0 l/m 2,7 km/h (1 Bft) W 270 5 min 1,4 UV-I 14,4 C 26,6 C 4,0 km/h (1 Bft)
27.07.2010 10:40 20,0 C 19,0 C 18,7 C 26,7 C 26,7 C 6,7 C 70 % 63 % 100 % 1014,2 hPa 0,0 l/m 3,1 km/h (1 Bft) W 270 5 min 1,7 UV-I 14,4 C 26,7 C 6,3 km/h (2 Bft)
27.07.2010 10:45 20,0 C 19,0 C 18,8 C 25,1 C 25,1 C 5,1 C 70 % 64 % 100 % 1014,2 hPa 0,0 l/m 3,1 km/h (1 Bft) S-SO 157 5 min 1,5 UV-I 14,4 C 25,1 C 1,9 km/h (1 Bft)
27.07.2010 10:50 20,1 C 19,0 C 18,8 C 25,7 C 25,7 C 5,6 C 70 % 64 % 100 % 1014,2 hPa 0,0 l/m 2,3 km/h (1 Bft) NW 315 5 min 1,3 UV-I 14,5 C 25,7 C 2,1 km/h (1 Bft)
27.07.2010 10:55 20,3 C 19,0 C 18,8 C 26,3 C 26,3 C 6,0 C 69 % 63 % 100 % 1014,2 hPa 0,0 l/m 0,5 km/h (0 Bft) SW 225 5 min 1,3 UV-I 14,4 C 26,3 C 2,3 km/h (1 Bft)
27.07.2010 11:00 20,4 C 19,0 C 18,9 C 27,0 C 27,0 C 6,6 C 68 % 63 % 100 % 1013,8 hPa 0,0 l/m 0,8 km/h (0 Bft) O 90 5 min 1,4 UV-I 14,3 C 27,0 C 4,7 km/h (1 Bft)
27.07.2010 11:10 20,7 C 19,0 C 19,3 C 27,1 C 27,1 C 6,4 C 67 % 62 % 100 % 1013,8 hPa 0,0 l/m 3,4 km/h (1 Bft) S 180 10 min 1,4 UV-I 14,3 C 27,1 C 5,5 km/h (1 Bft)
27.07.2010 11:15 20,9 C 19,0 C 19,5 C 27,1 C 27,1 C 6,2 C 67 % 61 % 100 % 1013,8 hPa 0,0 l/m 3,4 km/h (1 Bft) W-SW 247 5 min 1,4 UV-I 14,5 C 27,1 C 6,0 km/h (2 Bft)
27.07.2010 11:20 21,0 C 19,0 C 19,5 C 27,1 C 27,1 C 6,1 C 67 % 62 % 100 % 1013,8 hPa 0,0 l/m 3,9 km/h (1 Bft) SW 225 5 min 1,6 UV-I 14,6 C 27,1 C 5,6 km/h (1 Bft)
27.07.2010 11:25 21,1 C 19,0 C 19,6 C 26,9 C 26,9 C 5,8 C 65 % 61 % 100 % 1013,8 hPa 0,0 l/m 3,2 km/h (1 Bft) S-SW 202 5 min 1,5 UV-I 14,3 C 26,9 C 2,7 km/h (1 Bft)
27.07.2010 11:30 21,5 C 19,0 C 19,6 C 27,3 C 27,3 C 5,8 C 65 % 61 % 100 % 1013,8 hPa 0,0 l/m 2,1 km/h (1 Bft) S-SW 202 5 min 1,5 UV-I 14,6 C 27,3 C 9,7 km/h (2 Bft)
27.07.2010 11:35 21,5 C 19,0 C 19,8 C 27,6 C 27,6 C 6,1 C 65 % 59 % 100 % 1013,8 hPa 0,0 l/m 2,6 km/h (1 Bft) W-SW 247 5 min 1,6 UV-I 14,6 C 27,6 C 9,3 km/h (2 Bft)
27.07.2010 11:40 21,6 C 19,0 C 20,1 C 27,5 C 27,5 C 5,9 C 64 % 58 % 100 % 1013,9 hPa 0,0 l/m 3,4 km/h (1 Bft) S-SW 202 5 min 1,6 UV-I 14,5 C 27,5 C 4,5 km/h (1 Bft)
27.07.2010 11:45 21,9 C 19,0 C 20,2 C 28,1 C 28,1 C 6,2 C 64 % 60 % 100 % 1013,9 hPa 0,0 l/m 3,2 km/h (1 Bft) W-SW 247 5 min 1,7 UV-I 14,8 C 28,1 C 3,9 km/h (1 Bft)
27.07.2010 11:50 22,0 C 19,0 C 20,3 C 28,6 C 28,6 C 6,6 C 64 % 59 % 100 % 1013,9 hPa 0,0 l/m 2,6 km/h (1 Bft) SW 225 5 min 1,8 UV-I 14,9 C 28,6 C 3,1 km/h (1 Bft)
27.07.2010 11:55 22,2 C 19,0 C 20,6 C 28,4 C 28,4 C 6,2 C 63 % 58 % 100 % 1013,9 hPa 0,0 l/m 4,3 km/h (1 Bft) S 180 5 min 1,9 UV-I 14,8 C 28,4 C 10,8 km/h (2 Bft)
27.07.2010 12:00 22,3 C 19,0 C 20,6 C 28,2 C 28,2 C 5,9 C 63 % 57 % 100 % 1013,8 hPa 0,0 l/m 4,3 km/h (1 Bft) S 180 5 min 1,9 UV-I 14,9 C 28,2 C 6,6 km/h (2 Bft)
27.07.2010 12:10 22,5 C 19,0 C 21,2 C 29,4 C 29,4 C 6,9 C 62 % 56 % 100 % 1013,8 hPa 0,0 l/m 2,1 km/h (1 Bft) O-NO 67 10 min 1,9 UV-I 14,8 C 29,4 C 1,9 km/h (1 Bft)
27.07.2010 12:15 22,2 C 19,0 C 21,1 C 27,7 C 27,7 C 5,5 C 62 % 56 % 100 % 1013,8 hPa 0,0 l/m 1,6 km/h (1 Bft) S 180 5 min 1,5 UV-I 14,6 C 27,7 C 5,3 km/h (1 Bft)
27.07.2010 12:20 22,0 C 19,0 C 21,1 C 26,6 C 26,6 C 4,6 C 62 % 56 % 100 % 1014,5 hPa 0,0 l/m 2,6 km/h (1 Bft) S-SW 202 5 min 1,4 UV-I 14,4 C 26,6 C 3,7 km/h (1 Bft)
27.07.2010 12:25 21,9 C 19,0 C 20,9 C 25,2 C 25,2 C 3,3 C 62 % 56 % 87 % 1014,5 hPa 0,0 l/m 3,2 km/h (1 Bft) W-SW 247 5 min 1,4 UV-I 14,3 C 25,2 C 4,0 km/h (1 Bft)
27.07.2010 12:30 21,8 C 19,0 C 20,9 C 24,7 C 24,7 C 2,9 C 63 % 56 % 76 % 1014,5 hPa 0,0 l/m 2,9 km/h (1 Bft) W 270 0 min 1,6 UV-I 14,4 C 24,7 C 1,8 km/h (1 Bft)
27.07.2010 12:35 21,8 C 19,1 C 20,7 C 24,0 C 24,0 C 2,2 C 62 % 56 % 58 % 1014,5 hPa 0,0 l/m 2,3 km/h (1 Bft) S 180 0 min 1,8 UV-I 14,2 C 24,0 C 0,0 km/h (0 Bft)
27.07.2010 12:40 22,3 C 19,1 C 21,1 C 25,0 C 25,0 C 2,7 C 62 % 57 % 71 % 1014,1 hPa 0,0 l/m 2,7 km/h (1 Bft) S 180 0 min 2,4 UV-I 14,7 C 25,0 C 4,8 km/h (1 Bft)
27.07.2010 12:45 22,7 C 19,0 C 21,5 C 26,7 C 26,7 C 4,0 C 61 % 55 % 100 % 1014,1 hPa 0,0 l/m 3,7 km/h (1 Bft) W 270 5 min 3,3 UV-I 14,8 C 26,7 C 5,5 km/h (1 Bft)
27.07.2010 12:50 22,7 C 19,0 C 21,7 C 27,5 C 27,5 C 4,8 C 61 % 54 % 100 % 1014,1 hPa 0,0 l/m 4,2 km/h (1 Bft) W-SW 247 5 min 3,4 UV-I 14,8 C 27,5 C 8,0 km/h (2 Bft)
27.07.2010 12:55 23,1 C 19,1 C 22,3 C 28,2 C 28,2 C 5,1 C 60 % 54 % 100 % 1014,1 hPa 0,0 l/m 4,3 km/h (1 Bft) SW 225 5 min 3,4 UV-I 14,9 C 28,2 C 5,6 km/h (1 Bft)
27.07.2010 13:00 23,1 C 19,1 C 22,4 C 28,8 C 28,8 C 5,7 C 60 % 53 % 100 % 1014,0 hPa 0,0 l/m 4,0 km/h (1 Bft) NO 45 5 min 3,4 UV-I 14,9 C 28,8 C 3,5 km/h (1 Bft)
27.07.2010 13:10 23,2 C 19,1 C 22,5 C 29,1 C 29,1 C 5,9 C 60 % 53 % 100 % 1014,0 hPa 0,0 l/m 3,1 km/h (1 Bft) S-SW 202 10 min 2,9 UV-I 15,0 C 29,1 C 5,3 km/h (1 Bft)
27.07.2010 13:15 23,3 C 19,1 C 22,4 C 28,0 C 28,0 C 4,7 C 60 % 53 % 100 % 1014,0 hPa 0,0 l/m 4,7 km/h (1 Bft) W-SW 247 5 min 2,9 UV-I 15,1 C 28,0 C 11,4 km/h (2 Bft)
27.07.2010 13:20 23,4 C 19,1 C 22,7 C 28,2 C 28,2 C 4,8 C 59 % 51 % 100 % 1013,9 hPa 0,0 l/m 4,5 km/h (1 Bft) SO 135 5 min 2,7 UV-I 14,9 C 28,2 C 5,6 km/h (1 Bft)
27.07.2010 13:25 23,7 C 19,2 C 22,7 C 28,7 C 28,7 C 5,0 C 59 % 52 % 100 % 1013,9 hPa 0,0 l/m 3,2 km/h (1 Bft) S 180 5 min 3,4 UV-I 15,2 C 28,7 C 3,9 km/h (1 Bft)
27.07.2010 13:30 23,9 C 19,2 C 22,7 C 29,1 C 29,1 C 5,2 C 57 % 51 % 100 % 1013,9 hPa 0,0 l/m 3,2 km/h (1 Bft) O-SO 112 5 min 3,7 UV-I 14,9 C 29,1 C 4,8 km/h (1 Bft)
27.07.2010 13:35 24,0 C 19,2 C 22,9 C 29,5 C 29,5 C 5,5 C 56 % 51 % 100 % 1013,9 hPa 0,0 l/m 2,4 km/h (1 Bft) SO 135 5 min 3,6 UV-I 14,7 C 29,5 C 1,9 km/h (1 Bft)
27.07.2010 13:40 23,9 C 19,2 C 23,2 C 29,9 C 29,9 C 6,0 C 56 % 49 % 100 % 1013,6 hPa 0,0 l/m 2,7 km/h (1 Bft) W-NW 292 5 min 3,7 UV-I 14,6 C 29,9 C 6,1 km/h (2 Bft)
27.07.2010 13:45 23,7 C 19,2 C 23,1 C 29,4 C 29,4 C 5,7 C 56 % 49 % 100 % 1013,6 hPa 0,0 l/m 3,2 km/h (1 Bft) SW 225 5 min 3,3 UV-I 14,4 C 29,4 C 8,5 km/h (2 Bft)
27.07.2010 13:50 23,5 C 19,2 C 22,9 C 28,0 C 28,0 C 4,5 C 56 % 48 % 100 % 1013,6 hPa 0,0 l/m 4,0 km/h (1 Bft) NW 315 5 min 2,4 UV-I 14,2 C 28,0 C 1,8 km/h (1 Bft)
27.07.2010 13:55 23,3 C 19,2 C 22,7 C 26,9 C 26,9 C 3,6 C 56 % 49 % 95 % 1013,6 hPa 0,0 l/m 3,5 km/h (1 Bft) S 180 5 min 1,9 UV-I 14,0 C 26,9 C 5,5 km/h (1 Bft)
27.07.2010 14:00 23,3 C 19,2 C 22,4 C 26,2 C 26,2 C 2,9 C 57 % 49 % 76 % 1013,5 hPa 0,0 l/m 3,2 km/h (1 Bft) S-SW 202 0 min 1,8 UV-I 14,3 C 26,2 C 7,2 km/h (2 Bft)
27.07.2010 14:10 24,1 C 19,3 C 23,4 C 28,4 C 28,4 C 4,3 C 56 % 52 % 100 % 1013,5 hPa 0,0 l/m 4,8 km/h (1 Bft) W 270 10 min 3,8 UV-I 14,8 C 28,4 C 4,5 km/h (1 Bft)
27.07.2010 14:15 24,2 C 19,4 C 24,1 C 29,4 C 29,4 C 5,2 C 55 % 50 % 100 % 1013,5 hPa 0,0 l/m 4,2 km/h (1 Bft) W-SW 247 5 min 3,9 UV-I 14,6 C 29,4 C 5,8 km/h (2 Bft)
27.07.2010 14:20 24,4 C 19,3 C 24,1 C 29,8 C 29,8 C 5,4 C 53 % 49 % 100 % 1013,6 hPa 0,0 l/m 3,9 km/h (1 Bft) O 90 5 min 3,7 UV-I 14,2 C 29,8 C 2,4 km/h (1 Bft)
27.07.2010 14:25 24,2 C 19,3 C 24,0 C 29,6 C 29,6 C 5,4 C 54 % 55 % 100 % 1013,6 hPa 0,0 l/m 3,2 km/h (1 Bft) W-SW 247 5 min 2,9 UV-I 14,3 C 29,6 C 2,9 km/h (1 Bft)
27.07.2010 14:30 24,1 C 19,4 C 23,8 C 28,6 C 28,6 C 4,5 C 54 % 52 % 100 % 1013,6 hPa 0,0 l/m 3,7 km/h (1 Bft) S 180 5 min 1,8 UV-I 14,2 C 28,6 C 3,4 km/h (1 Bft)
27.07.2010 14:35 23,7 C 19,4 C 23,3 C 26,9 C 26,9 C 3,2 C 54 % 55 % 84 % 1013,6 hPa 0,0 l/m 3,9 km/h (1 Bft) W-SW 247 0 min 1,2 UV-I 13,8 C 26,9 C 5,0 km/h (1 Bft)
27.07.2010 14:40 23,6 C 19,4 C 23,0 C 26,1 C 26,1 C 2,5 C 54 % 55 % 66 % 1013,4 hPa 0,0 l/m 2,9 km/h (1 Bft) S 180 0 min 1,1 UV-I 13,7 C 26,1 C 0,0 km/h (0 Bft)
27.07.2010 14:45 23,5 C 19,4 C 22,8 C 25,6 C 25,6 C 2,1 C 55 % 57 % 55 % 1013,4 hPa 0,0 l/m 1,9 km/h (1 Bft) SW 225 0 min 0,9 UV-I 13,9 C 25,6 C 2,4 km/h (1 Bft)
27.07.2010 14:50 23,4 C 19,4 C 22,6 C 25,5 C 25,5 C 2,1 C 55 % 57 % 55 % 1013,4 hPa 0,0 l/m 1,4 km/h (1 Bft) SW 225 0 min 1,0 UV-I 13,8 C 25,5 C 3,2 km/h (1 Bft)
27.07.2010 14:55 23,5 C 19,4 C 22,5 C 25,3 C 25,3 C 1,8 C 55 % 56 % 47 % 1013,4 hPa 0,0 l/m 1,3 km/h (1 Bft) SO 135 0 min 1,0 UV-I 13,9 C 25,3 C 0,0 km/h (0 Bft)
27.07.2010 15:00 23,4 C 19,4 C 22,5 C 25,3 C 25,3 C 1,9 C 56 % 57 % 50 % 1013,7 hPa 0,0 l/m 1,1 km/h (1 Bft) W 270 0 min 1,1 UV-I 14,1 C 25,3 C 1,9 km/h (1 Bft)
27.07.2010 15:10 23,3 C 19,5 C 22,3 C 25,4 C 25,4 C 2,1 C 57 % 58 % 55 % 1013,7 hPa 0,0 l/m 0,2 km/h (0 Bft) O 90 0 min 1,1 UV-I 14,3 C 25,4 C 0,0 km/h (0 Bft)
27.07.2010 15:15 23,3 C 19,5 C 22,1 C 25,4 C 25,4 C 2,1 C 58 % 58 % 55 % 1013,7 hPa 0,0 l/m 0,3 km/h (0 Bft) NO 45 0 min 1,1 UV-I 14,6 C 25,4 C 0,0 km/h (0 Bft)
27.07.2010 15:20 23,2 C 19,5 C 22,1 C 25,4 C 25,4 C 2,2 C 57 % 58 % 58 % 1013,8 hPa 0,0 l/m 0,2 km/h (0 Bft) O-NO 67 0 min 1,1 UV-I 14,2 C 25,4 C 0,0 km/h (0 Bft)
27.07.2010 15:25 23,1 C 19,5 C 22,0 C 25,2 C 25,2 C 2,1 C 57 % 58 % 55 % 1013,8 hPa 0,0 l/m 0,2 km/h (0 Bft) O-NO 67 0 min 1,0 UV-I 14,1 C 25,2 C 0,0 km/h (0 Bft)
27.07.2010 15:30 23,0 C 19,5 C 21,9 C 25,2 C 25,2 C 2,2 C 56 % 58 % 58 % 1013,8 hPa 0,0 l/m 0,2 km/h (0 Bft) NW 315 0 min 0,9 UV-I 13,7 C 25,2 C 0,0 km/h (0 Bft)
27.07.2010 15:35 23,1 C 19,6 C 22,0 C 25,2 C 25,2 C 2,1 C 56 % 58 % 55 % 1013,8 hPa 0,0 l/m 0,3 km/h (0 Bft) NO 45 0 min 0,8 UV-I 13,8 C 25,2 C 0,0 km/h (0 Bft)
27.07.2010 15:40 23,1 C 19,6 C 22,0 C 25,2 C 25,2 C 2,1 C 56 % 60 % 55 % 1013,6 hPa 0,0 l/m 0,2 km/h (0 Bft) W 270 0 min 0,8 UV-I 13,8 C 25,2 C 0,0 km/h (0 Bft)
27.07.2010 15:45 23,1 C 19,6 C 21,9 C 25,3 C 25,3 C 2,2 C 57 % 62 % 58 % 1013,6 hPa 0,0 l/m 0,2 km/h (0 Bft) S-SW 202 0 min 0,9 UV-I 14,1 C 25,3 C 2,9 km/h (1 Bft)
27.07.2010 15:50 23,1 C 19,6 C 21,9 C 25,3 C 25,3 C 2,2 C 56 % 62 % 58 % 1013,6 hPa 0,0 l/m 0,8 km/h (0 Bft) S-SW 202 0 min 0,8 UV-I 13,8 C 25,3 C 0,0 km/h (0 Bft)
27.07.2010 15:55 23,1 C 19,6 C 21,9 C 25,3 C 25,3 C 2,2 C 57 % 62 % 58 % 1013,6 hPa 0,0 l/m 0,8 km/h (0 Bft) W 270 0 min 0,8 UV-I 14,1 C 25,3 C 0,0 km/h (0 Bft)
27.07.2010 16:00 23,1 C 19,6 C 21,9 C 25,2 C 25,2 C 2,1 C 57 % 62 % 55 % 1013,3 hPa 0,0 l/m 0,3 km/h (0 Bft) NW 315 0 min 0,8 UV-I 14,1 C 25,2 C 0,0 km/h (0 Bft)
27.07.2010 16:10 23,1 C 19,8 C 21,9 C 25,0 C 25,0 C 1,9 C 57 % 62 % 50 % 1013,3 hPa 0,0 l/m 1,0 km/h (0 Bft) NW 315 0 min 0,8 UV-I 14,1 C 25,0 C 0,0 km/h (0 Bft)
27.07.2010 16:15 23,3 C 19,8 C 21,9 C 25,0 C 25,0 C 1,7 C 58 % 62 % 45 % 1013,3 hPa 0,0 l/m 0,3 km/h (0 Bft) N 360 0 min 0,8 UV-I 14,6 C 25,0 C 0,0 km/h (0 Bft)
27.07.2010 16:20 23,5 C 19,7 C 21,9 C 25,6 C 25,6 C 2,1 C 56 % 62 % 55 % 1013,4 hPa 0,0 l/m 0,3 km/h (0 Bft) N-NO 22 0 min 0,9 UV-I 14,2 C 25,6 C 3,2 km/h (1 Bft)
27.07.2010 16:25 23,4 C 19,7 C 21,9 C 26,5 C 26,5 C 3,1 C 56 % 62 % 82 % 1013,4 hPa 0,0 l/m 1,0 km/h (0 Bft) O-NO 67 0 min 1,1 UV-I 14,1 C 26,5 C 0,0 km/h (0 Bft)
27.07.2010 16:30 23,4 C 19,7 C 21,9 C 26,3 C 26,3 C 2,9 C 56 % 62 % 76 % 1013,4 hPa 0,0 l/m 0,6 km/h (0 Bft) O-NO 67 0 min 0,7 UV-I 14,1 C 26,3 C 1,8 km/h (1 Bft)
27.07.2010 16:35 23,2 C 19,8 C 21,9 C 25,8 C 25,8 C 2,6 C 56 % 62 % 68 % 1013,4 hPa 0,0 l/m 0,2 km/h (0 Bft) O 90 0 min 0,5 UV-I 13,9 C 25,8 C 0,0 km/h (0 Bft)
27.07.2010 16:40 23,1 C 19,8 C 21,9 C 25,5 C 25,5 C 2,4 C 56 % 62 % 63 % 1013,2 hPa 0,0 l/m 0,3 km/h (0 Bft) O-NO 67 0 min 0,5 UV-I 13,8 C 25,5 C 2,3 km/h (1 Bft)
27.07.2010 16:45 23,0 C 19,8 C 21,9 C 24,9 C 24,9 C 1,9 C 57 % 62 % 50 % 1013,2 hPa 0,0 l/m 1,0 km/h (0 Bft) W 270 0 min 0,4 UV-I 14,0 C 24,9 C 2,7 km/h (1 Bft)
27.07.2010 16:50 23,0 C 19,8 C 21,9 C 24,6 C 24,6 C 1,6 C 58 % 62 % 42 % 1013,2 hPa 0,0 l/m 1,6 km/h (1 Bft) O-SO 112 0 min 0,2 UV-I 14,3 C 24,6 C 2,6 km/h (1 Bft)
27.07.2010 16:55 22,5 C 20,3 C 21,9 C 23,3 C 23,3 C 0,8 C 61 % 62 % 21 % 1013,2 hPa 0,0 l/m 2,1 km/h (1 Bft) O-NO 67 0 min 0,1 UV-I 14,6 C 23,3 C 3,2 km/h (1 Bft)
27.07.2010 17:00 22,0 C 20,4 C 21,9 C 21,7 C 21,2 C 0,0 C 64 % 62 % 0 % 1013,9 hPa 0,0 l/m 2,6 km/h (1 Bft) N-NO 22 0 min 0,0 UV-I 14,9 C 21,2 C 2,7 km/h (1 Bft)
27.07.2010 17:09 20,7 C 20,4 C 21,9 C 20,0 C 18,7 C 0,0 C 70 % 62 % 0 % 1013,9 hPa 0,7 l/m 2,3 km/h (1 Bft) N 0 0 min 0,0 UV-I 15,0 C 18,7 C 4,8 km/h (1 Bft)
27.07.2010 17:10 20,7 C 20,4 C 21,9 C 20,0 C 18,7 C 0,0 C 70 % 62 % 0 % 1013,9 hPa 0,0 l/m 2,3 km/h (1 Bft) O-NO 67 0 min 0,0 UV-I 15,0 C 18,7 C 4,8 km/h (1 Bft)
27.07.2010 17:15 20,2 C 20,4 C 21,9 C 19,5 C 18,0 C 0,0 C 74 % 62 % 0 % 1013,9 hPa 0,0 l/m 3,5 km/h (1 Bft) O-NO 67 0 min 0,0 UV-I 15,4 C 18,0 C 4,0 km/h (1 Bft)
27.07.2010 17:20 20,1 C 20,4 C 21,9 C 19,3 C 17,7 C 0,0 C 75 % 62 % 0 % 1013,7 hPa 0,7 l/m 2,9 km/h (1 Bft) SO 135 0 min 0,0 UV-I 15,5 C 17,7 C 1,9 km/h (1 Bft)
27.07.2010 17:25 20,0 C 20,4 C 21,9 C 19,2 C 17,5 C 0,0 C 76 % 62 % 0 % 1013,7 hPa 0,0 l/m 1,8 km/h (1 Bft) NO 45 0 min 0,0 UV-I 15,6 C 17,5 C 0,0 km/h (0 Bft)
27.07.2010 17:30 19,8 C 20,4 C 21,9 C 19,0 C 17,4 C 0,0 C 77 % 62 % 0 % 1013,7 hPa 0,0 l/m 0,8 km/h (0 Bft) O-SO 112 0 min 0,0 UV-I 15,6 C 17,4 C 0,0 km/h (0 Bft)
27.07.2010 17:35 19,7 C 20,4 C 21,9 C 18,9 C 17,3 C 0,0 C 76 % 62 % 0 % 1013,7 hPa 0,0 l/m 0,3 km/h (0 Bft) O-NO 67 0 min 0,0 UV-I 15,3 C 17,3 C 1,8 km/h (1 Bft)
27.07.2010 17:40 19,7 C 20,4 C 17,6 C 18,9 C 17,3 C 0,0 C 78 % 80 % 0 % 1013,6 hPa 0,0 l/m 0,2 km/h (0 Bft) O-NO 67 0 min 0,0 UV-I 15,8 C 17,3 C 0,0 km/h (0 Bft)
27.07.2010 17:45 19,9 C 20,4 C 17,6 C 19,2 C 17,7 C 0,0 C 80 % 80 % 0 % 1013,6 hPa 0,0 l/m 0,6 km/h (0 Bft) W-SW 247 0 min 0,0 UV-I 16,3 C 17,7 C 2,3 km/h (1 Bft)
27.07.2010 17:50 20,0 C 20,5 C 17,6 C 19,3 C 17,9 C 0,0 C 81 % 80 % 0 % 1013,6 hPa 0,0 l/m 0,8 km/h (0 Bft) W-SW 247 0 min 0,0 UV-I 16,6 C 17,9 C 0,0 km/h (0 Bft)
27.07.2010 17:55 19,9 C 20,5 C 17,6 C 19,3 C 18,2 C 0,0 C 81 % 80 % 0 % 1013,6 hPa 0,0 l/m 0,3 km/h (0 Bft) W-SW 247 0 min 0,0 UV-I 16,5 C 18,2 C 0,0 km/h (0 Bft)
27.07.2010 18:00 19,9 C 20,5 C 17,6 C 19,4 C 18,3 C 0,0 C 81 % 80 % 0 % 1013,5 hPa 0,0 l/m 0,0 km/h (0 Bft) W-SW 247 0 min 0,1 UV-I 16,5 C 18,3 C 0,0 km/h (0 Bft)
27.07.2010 18:09 19,8 C 20,5 C 17,6 C 19,4 C 18,7 C 0,0 C 83 % 80 % 0 % 1013,5 hPa 0,0 l/m 0,0 km/h (0 Bft) N 0 0 min 0,1 UV-I 16,8 C 18,7 C 0,0 km/h (0 Bft)
27.07.2010 18:10 19,8 C 20,5 C 17,6 C 19,4 C 18,7 C 0,0 C 83 % 80 % 0 % 1013,5 hPa 0,0 l/m 0,0 km/h (0 Bft) W-SW 247 0 min 0,1 UV-I 16,8 C 18,7 C 0,0 km/h (0 Bft)
27.07.2010 18:15 19,9 C 20,5 C 17,6 C 19,6 C 19,1 C 0,0 C 83 % 80 % 0 % 1013,5 hPa 0,0 l/m 0,0 km/h (0 Bft) W-SW 247 0 min 0,1 UV-I 16,9 C 19,1 C 0,0 km/h (0 Bft)
27.07.2010 18:20 20,0 C 20,5 C 17,6 C 19,8 C 19,3 C 0,0 C 84 % 80 % 0 % 1014,2 hPa 0,0 l/m 0,2 km/h (0 Bft) SW 225 0 min 0,1 UV-I 17,2 C 19,3 C 2,3 km/h (1 Bft)
27.07.2010 18:25 20,1 C 20,5 C 17,6 C 19,9 C 19,4 C 0,0 C 84 % 80 % 0 % 1014,2 hPa 0,0 l/m 1,0 km/h (0 Bft) SW 225 0 min 0,1 UV-I 17,3 C 19,4 C 0,0 km/h (0 Bft)
27.07.2010 18:30 20,1 C 20,5 C 17,6 C 19,9 C 19,5 C 0,0 C 84 % 80 % 0 % 1014,2 hPa 0,0 l/m 1,0 km/h (0 Bft) SW 225 0 min 0,1 UV-I 17,3 C 19,5 C 0,0 km/h (0 Bft)
27.07.2010 18:35 20,0 C 20,5 C 17,6 C 19,9 C 19,7 C 0,0 C 84 % 80 % 0 % 1014,2 hPa 0,0 l/m 0,2 km/h (0 Bft) O-NO 67 0 min 0,1 UV-I 17,2 C 19,7 C 1,6 km/h (1 Bft)
27.07.2010 18:40 20,1 C 20,5 C 17,6 C 20,0 C 19,9 C 0,0 C 84 % 80 % 0 % 1013,5 hPa 0,0 l/m 0,2 km/h (0 Bft) O-NO 67 0 min 0,1 UV-I 17,3 C 19,9 C 0,0 km/h (0 Bft)
27.07.2010 18:45 20,3 C 20,5 C 17,6 C 20,3 C 20,3 C 0,0 C 85 % 80 % 0 % 1013,5 hPa 0,0 l/m 0,0 km/h (0 Bft) O-NO 67 0 min 0,1 UV-I 17,7 C 20,3 C 0,0 km/h (0 Bft)
27.07.2010 18:50 20,2 C 20,5 C 17,6 C 20,5 C 20,5 C 0,3 C 85 % 80 % 8 % 1013,5 hPa 0,0 l/m 0,0 km/h (0 Bft) O-NO 67 0 min 0,1 UV-I 17,6 C 20,5 C 0,0 km/h (0 Bft)
27.07.2010 18:55 20,2 C 20,5 C 17,6 C 20,7 C 20,7 C 0,5 C 84 % 80 % 13 % 1013,5 hPa 0,0 l/m 0,0 km/h (0 Bft) O-NO 67 0 min 0,1 UV-I 17,4 C 20,7 C 0,0 km/h (0 Bft)
27.07.2010 19:00 20,3 C 20,5 C 17,6 C 20,8 C 20,8 C 0,5 C 84 % 80 % 13 % 1013,4 hPa 0,0 l/m 0,0 km/h (0 Bft) N-NW 337 0 min 0,0 UV-I 17,5 C 20,8 C 0,0 km/h (0 Bft)
27.07.2010 19:09 21,1 C 20,5 C 17,6 C 21,4 C 21,4 C 0,3 C 84 % 80 % 8 % 1013,4 hPa 0,0 l/m 0,0 km/h (0 Bft) N 0 0 min 0,0 UV-I 18,3 C 21,4 C 0,0 km/h (0 Bft)
27.07.2010 19:10 21,1 C 20,5 C 17,6 C 21,4 C 21,4 C 0,3 C 84 % 80 % 8 % 1013,4 hPa 0,0 l/m 0,0 km/h (0 Bft) W-NW 292 0 min 0,0 UV-I 18,3 C 21,4 C 0,0 km/h (0 Bft)
27.07.2010 19:15 21,3 C 20,5 C 17,6 C 22,5 C 22,5 C 1,2 C 83 % 80 % 32 % 1013,4 hPa 0,0 l/m 0,0 km/h (0 Bft) W 270 0 min 0,0 UV-I 18,3 C 22,5 C 0,0 km/h (0 Bft)
27.07.2010 19:20 21,5 C 20,5 C 17,6 C 23,3 C 23,3 C 1,8 C 83 % 80 % 47 % 1013,3 hPa 0,0 l/m 0,0 km/h (0 Bft) W 270 0 min 0,0 UV-I 18,5 C 23,3 C 0,0 km/h (0 Bft)
27.07.2010 19:25 21,6 C 20,5 C 17,6 C 23,9 C 23,9 C 2,3 C 82 % 80 % 61 % 1013,3 hPa 0,0 l/m 0,0 km/h (0 Bft) W 270 5 min 0,0 UV-I 18,4 C 23,9 C 0,0 km/h (0 Bft)
27.07.2010 19:30 21,6 C 20,5 C 17,6 C 24,2 C 24,2 C 2,6 C 81 % 80 % 68 % 1013,3 hPa 0,0 l/m 0,0 km/h (0 Bft) W 270 5 min 0,0 UV-I 18,2 C 24,2 C 0,0 km/h (0 Bft)
27.07.2010 19:35 21,5 C 20,5 C 17,6 C 24,1 C 24,1 C 2,6 C 80 % 80 % 68 % 1013,3 hPa 0,0 l/m 0,0 km/h (0 Bft) W 270 5 min 0,0 UV-I 17,9 C 24,1 C 0,0 km/h (0 Bft)
27.07.2010 19:40 21,3 C 20,5 C 17,6 C 23,7 C 23,7 C 2,4 C 80 % 80 % 63 % 1013,2 hPa 0,0 l/m 0,0 km/h (0 Bft) W 270 5 min 0,0 UV-I 17,7 C 23,7 C 0,0 km/h (0 Bft)
27.07.2010 19:45 21,1 C 20,5 C 17,6 C 23,1 C 23,1 C 2,0 C 80 % 80 % 53 % 1013,2 hPa 0,0 l/m 0,0 km/h (0 Bft) W 270 5 min 0,0 UV-I 17,5 C 23,1 C 0,0 km/h (0 Bft)
27.07.2010 19:50 21,0 C 20,5 C 17,6 C 22,4 C 22,4 C 1,4 C 81 % 80 % 37 % 1013,2 hPa 0,0 l/m 0,0 km/h (0 Bft) W 270 0 min 0,0 UV-I 17,6 C 22,4 C 0,0 km/h (0 Bft)
27.07.2010 19:55 21,3 C 20,5 C 17,6 C 22,0 C 22,0 C 0,7 C 82 % 80 % 18 % 1013,2 hPa 0,0 l/m 0,0 km/h (0 Bft) W 270 0 min 0,0 UV-I 18,1 C 22,0 C 0,0 km/h (0 Bft)
27.07.2010 20:00 21,5 C 20,5 C 17,6 C 22,0 C 22,0 C 0,5 C 82 % 80 % 13 % 1013,3 hPa 0,0 l/m 0,6 km/h (0 Bft) W-SW 247 0 min 0,0 UV-I 18,3 C 22,0 C 2,3 km/h (1 Bft)
27.07.2010 20:09 21,4 C 20,5 C 17,6 C 21,4 C 21,4 C 0,0 C 82 % 80 % 0 % 1013,3 hPa 0,0 l/m 1,3 km/h (1 Bft) N 0 0 min 0,0 UV-I 18,2 C 21,4 C 0,0 km/h (0 Bft)
27.07.2010 20:15 21,0 C 20,6 C 17,6 C 20,9 C 20,7 C 0,0 C 83 % 80 % 0 % 1013,3 hPa 0,0 l/m 0,5 km/h (0 Bft) SW 225 0 min 0,0 UV-I 18,0 C 20,7 C 0,0 km/h (0 Bft)
27.07.2010 20:20 20,8 C 20,5 C 17,6 C 20,6 C 20,2 C 0,0 C 83 % 80 % 0 % 1013,4 hPa 0,0 l/m 0,0 km/h (0 Bft) O-NO 67 0 min 0,0 UV-I 17,8 C 20,2 C 0,0 km/h (0 Bft)
27.07.2010 20:25 20,6 C 20,5 C 17,6 C 20,2 C 19,4 C 0,0 C 83 % 80 % 0 % 1013,4 hPa 0,0 l/m 0,0 km/h (0 Bft) O-NO 67 0 min 0,0 UV-I 17,6 C 19,4 C 0,0 km/h (0 Bft)
27.07.2010 20:30 20,6 C 20,5 C 17,6 C 20,1 C 19,0 C 0,0 C 83 % 80 % 0 % 1013,4 hPa 0,0 l/m 0,0 km/h (0 Bft) O-NO 67 0 min 0,0 UV-I 17,6 C 19,0 C 0,0 km/h (0 Bft)
27.07.2010 20:35 20,3 C 20,5 C 17,6 C 19,7 C 18,5 C 0,0 C 83 % 80 % 0 % 1013,4 hPa 0,0 l/m 0,0 km/h (0 Bft) O-NO 67 0 min 0,0 UV-I 17,3 C 18,5 C 0,0 km/h (0 Bft)
27.07.2010 20:40 20,2 C 20,5 C 17,6 C 19,5 C 18,2 C 0,0 C 84 % 80 % 0 % 1013,5 hPa 0,0 l/m 0,0 km/h (0 Bft) O-NO 67 0 min 0,0 UV-I 17,4 C 18,2 C 0,0 km/h (0 Bft)
27.07.2010 20:45 20,0 C 20,5 C 17,6 C 19,3 C 17,8 C 0,0 C 84 % 80 % 0 % 1013,5 hPa 0,0 l/m 0,0 km/h (0 Bft) O-NO 67 0 min 0,0 UV-I 17,2 C 17,8 C 0,0 km/h (0 Bft)
27.07.2010 20:50 19,9 C 20,5 C 17,6 C 19,1 C 17,5 C 0,0 C 83 % 80 % 0 % 1013,5 hPa 0,0 l/m 0,0 km/h (0 Bft) O-NO 67 0 min 0,0 UV-I 16,9 C 17,5 C 0,0 km/h (0 Bft)
27.07.2010 20:55 19,8 C 20,5 C 17,6 C 18,9 C 17,2 C 0,0 C 83 % 80 % 0 % 1013,5 hPa 0,0 l/m 0,0 km/h (0 Bft) O-NO 67 0 min 0,0 UV-I 16,8 C 17,2 C 0,0 km/h (0 Bft)
27.07.2010 21:00 19,7 C 20,5 C 17,6 C 18,8 C 17,1 C 0,0 C 84 % 80 % 0 % 1013,6 hPa 0,0 l/m 0,0 km/h (0 Bft) O-NO 67 0 min 0,0 UV-I 16,9 C 17,1 C 0,0 km/h (0 Bft)
27.07.2010 21:09 19,6 C 20,5 C 17,6 C 18,7 C 16,9 C 0,0 C 85 % 80 % 0 % 1013,6 hPa 0,0 l/m 0,0 km/h (0 Bft) N 0 0 min 0,0 UV-I 17,0 C 16,9 C 0,0 km/h (0 Bft)
27.07.2010 21:10 19,6 C 20,5 C 17,6 C 18,7 C 16,9 C 0,0 C 85 % 80 % 0 % 1013,6 hPa 0,0 l/m 0,0 km/h (0 Bft) S 180 0 min 0,0 UV-I 17,0 C 16,9 C 0,0 km/h (0 Bft)
27.07.2010 21:15 19,6 C 20,5 C 17,6 C 18,7 C 16,9 C 0,0 C 85 % 80 % 0 % 1013,6 hPa 0,0 l/m 0,0 km/h (0 Bft) S 180 0 min 0,0 UV-I 17,0 C 16,9 C 0,0 km/h (0 Bft)
27.07.2010 21:20 19,5 C 20,5 C 17,6 C 18,6 C 16,8 C 0,0 C 85 % 80 % 0 % 1013,9 hPa 0,0 l/m 0,0 km/h (0 Bft) S 180 0 min 0,0 UV-I 16,9 C 16,8 C 0,0 km/h (0 Bft)
27.07.2010 21:25 19,3 C 20,5 C 17,6 C 18,5 C 16,8 C 0,0 C 85 % 80 % 0 % 1013,9 hPa 0,0 l/m 0,0 km/h (0 Bft) S 180 0 min 0,0 UV-I 16,7 C 16,8 C 0,0 km/h (0 Bft)
27.07.2010 21:30 19,1 C 20,5 C 17,6 C 18,3 C 16,7 C 0,0 C 85 % 80 % 0 % 1013,9 hPa 0,0 l/m 0,0 km/h (0 Bft) NO 45 0 min 0,0 UV-I 16,5 C 16,7 C 0,0 km/h (0 Bft)
27.07.2010 21:35 19,1 C 20,5 C 17,6 C 18,3 C 16,6 C 0,0 C 85 % 80 % 0 % 1013,9 hPa 0,0 l/m 0,0 km/h (0 Bft) SO 135 0 min 0,0 UV-I 16,5 C 16,6 C 0,0 km/h (0 Bft)
27.07.2010 21:40 19,1 C 20,5 C 17,6 C 18,2 C 16,5 C 0,0 C 85 % 80 % 0 % 1014,1 hPa 0,0 l/m 0,0 km/h (0 Bft) SO 135 0 min 0,0 UV-I 16,5 C 16,5 C 0,0 km/h (0 Bft)
27.07.2010 21:45 19,1 C 20,5 C 17,6 C 18,2 C 16,5 C 0,0 C 85 % 80 % 0 % 1014,1 hPa 0,0 l/m 0,0 km/h (0 Bft) S 180 0 min 0,0 UV-I 16,5 C 16,5 C 0,0 km/h (0 Bft)
27.07.2010 21:50 19,1 C 20,5 C 17,6 C 18,2 C 16,4 C 0,0 C 85 % 80 % 0 % 1014,1 hPa 0,0 l/m 0,0 km/h (0 Bft) S 180 0 min 0,0 UV-I 16,5 C 16,4 C 0,0 km/h (0 Bft)
27.07.2010 21:55 18,9 C 20,4 C 17,6 C 18,0 C 16,3 C 0,0 C 84 % 80 % 0 % 1014,1 hPa 0,0 l/m 0,0 km/h (0 Bft) NO 45 0 min 0,0 UV-I 16,1 C 16,3 C 0,0 km/h (0 Bft)
27.07.2010 22:00 18,8 C 20,4 C 17,6 C 17,9 C 16,1 C 0,0 C 83 % 80 % 0 % 1014,0 hPa 0,0 l/m 0,0 km/h (0 Bft) N-NO 22 0 min 0,0 UV-I 15,8 C 16,1 C 0,0 km/h (0 Bft)
27.07.2010 22:09 18,7 C 20,5 C 17,6 C 17,8 C 16,1 C 0,0 C 82 % 80 % 0 % 1014,0 hPa 0,0 l/m 0,3 km/h (0 Bft) N 0 0 min 0,0 UV-I 15,6 C 16,1 C 0,0 km/h (0 Bft)
27.07.2010 22:10 18,5 C 20,5 C 17,6 C 17,6 C 15,9 C 0,0 C 82 % 80 % 0 % 1014,0 hPa 0,0 l/m 0,0 km/h (0 Bft) S-SO 157 0 min 0,0 UV-I 15,4 C 15,9 C 0,0 km/h (0 Bft)
27.07.2010 22:15 18,5 C 20,5 C 17,6 C 17,6 C 15,9 C 0,0 C 82 % 80 % 0 % 1014,0 hPa 0,0 l/m 0,0 km/h (0 Bft) S-SO 157 0 min 0,0 UV-I 15,4 C 15,9 C 0,0 km/h (0 Bft)
27.07.2010 22:20 18,4 C 20,5 C 17,6 C 17,5 C 15,8 C 0,0 C 82 % 80 % 0 % 1014,6 hPa 0,0 l/m 0,0 km/h (0 Bft) S-SO 157 0 min 0,0 UV-I 15,3 C 15,8 C 0,0 km/h (0 Bft)
27.07.2010 22:25 18,3 C 20,4 C 17,6 C 17,4 C 15,6 C 0,0 C 82 % 80 % 0 % 1014,6 hPa 0,0 l/m 0,0 km/h (0 Bft) S-SO 157 0 min 0,0 UV-I 15,2 C 15,6 C 0,0 km/h (0 Bft)
27.07.2010 22:30 18,0 C 20,4 C 17,6 C 17,1 C 15,4 C 0,0 C 82 % 80 % 0 % 1014,6 hPa 0,0 l/m 0,0 km/h (0 Bft) S-SO 157 0 min 0,0 UV-I 14,9 C 15,4 C 0,0 km/h (0 Bft)
27.07.2010 22:35 18,0 C 20,4 C 17,6 C 17,1 C 15,4 C 0,0 C 82 % 80 % 0 % 1014,6 hPa 0,0 l/m 0,0 km/h (0 Bft) S-SO 157 0 min 0,0 UV-I 14,9 C 15,4 C 0,0 km/h (0 Bft)
27.07.2010 22:40 18,1 C 20,4 C 17,6 C 17,2 C 15,4 C 0,0 C 82 % 80 % 0 % 1014,1 hPa 0,0 l/m 0,0 km/h (0 Bft) S-SO 157 0 min 0,0 UV-I 15,0 C 15,4 C 0,0 km/h (0 Bft)
27.07.2010 22:45 18,0 C 20,4 C 17,6 C 17,1 C 15,3 C 0,0 C 82 % 80 % 0 % 1014,1 hPa 0,0 l/m 0,0 km/h (0 Bft) SO 135 0 min 0,0 UV-I 14,9 C 15,3 C 0,0 km/h (0 Bft)
27.07.2010 22:50 18,0 C 20,4 C 17,6 C 17,1 C 15,3 C 0,0 C 82 % 80 % 0 % 1014,1 hPa 0,0 l/m 0,0 km/h (0 Bft) SO 135 0 min 0,0 UV-I 14,9 C 15,3 C 0,0 km/h (0 Bft)
27.07.2010 22:55 18,0 C 20,4 C 17,6 C 17,1 C 15,2 C 0,0 C 82 % 80 % 0 % 1014,1 hPa 0,0 l/m 0,0 km/h (0 Bft) SO 135 0 min 0,0 UV-I 14,9 C 15,2 C 0,0 km/h (0 Bft)
27.07.2010 23:00 17,9 C 20,3 C 17,6 C 17,0 C 15,2 C 0,0 C 82 % 80 % 0 % 1014,4 hPa 0,0 l/m 0,0 km/h (0 Bft) SO 135 0 min 0,0 UV-I 14,8 C 15,2 C 0,0 km/h (0 Bft)
27.07.2010 23:10 17,8 C 20,3 C 17,6 C 16,9 C 15,0 C 0,0 C 83 % 80 % 0 % 1014,4 hPa 0,0 l/m 0,0 km/h (0 Bft) O-NO 67 0 min 0,0 UV-I 14,9 C 15,0 C 0,0 km/h (0 Bft)
27.07.2010 23:15 17,6 C 20,3 C 17,6 C 16,7 C 15,0 C 0,0 C 83 % 80 % 0 % 1014,4 hPa 0,0 l/m 0,0 km/h (0 Bft) S 180 0 min 0,0 UV-I 14,7 C 15,0 C 0,0 km/h (0 Bft)
27.07.2010 23:20 17,7 C 20,3 C 17,6 C 16,8 C 14,9 C 0,0 C 83 % 80 % 0 % 1014,6 hPa 0,0 l/m 0,0 km/h (0 Bft) S-SW 202 0 min 0,0 UV-I 14,8 C 14,9 C 0,0 km/h (0 Bft)
27.07.2010 23:25 17,6 C 20,3 C 17,6 C 16,7 C 14,9 C 0,0 C 83 % 80 % 0 % 1014,6 hPa 0,0 l/m 0,0 km/h (0 Bft) SO 135 0 min 0,0 UV-I 14,7 C 14,9 C 0,0 km/h (0 Bft)
27.07.2010 23:30 17,6 C 20,3 C 17,6 C 16,7 C 14,8 C 0,0 C 83 % 80 % 0 % 1014,6 hPa 0,0 l/m 0,0 km/h (0 Bft) S 180 0 min 0,0 UV-I 14,7 C 14,8 C 0,0 km/h (0 Bft)
27.07.2010 23:35 17,6 C 20,3 C 17,6 C 16,7 C 14,8 C 0,0 C 83 % 80 % 0 % 1014,6 hPa 0,0 l/m 0,2 km/h (0 Bft) SO 135 0 min 0,0 UV-I 14,7 C 14,8 C 0,0 km/h (0 Bft)
27.07.2010 23:40 17,6 C 20,3 C 17,6 C 16,7 C 14,8 C 0,0 C 83 % 80 % 0 % 1014,4 hPa 0,0 l/m 0,0 km/h (0 Bft) O-NO 67 0 min 0,0 UV-I 14,7 C 14,8 C 0,0 km/h (0 Bft)
27.07.2010 23:45 17,3 C 20,3 C 17,6 C 16,4 C 14,7 C 0,0 C 83 % 80 % 0 % 1014,4 hPa 0,0 l/m 0,0 km/h (0 Bft) O-NO 67 0 min 0,0 UV-I 14,4 C 14,7 C 0,0 km/h (0 Bft)
27.07.2010 23:50 17,2 C 20,2 C 17,6 C 16,4 C 14,7 C 0,0 C 83 % 80 % 0 % 1014,4 hPa 0,0 l/m 0,0 km/h (0 Bft) O-NO 67 0 min 0,0 UV-I 14,3 C 14,7 C 0,0 km/h (0 Bft)
27.07.2010 23:55 17,3 C 20,3 C 17,6 C 16,4 C 14,7 C 0,0 C 84 % 80 % 0 % 1014,4 hPa 0,0 l/m 0,0 km/h (0 Bft) O-NO 67 0 min 0,0 UV-I 14,6 C 14,7 C 0,0 km/h (0 Bft)
_ Min-Zeit 06:00 10:00 06:45 05:55 05:50 00:00 14:20 00:00 00:00 01:20 - 00:07 - - - 00:00 06:00 05:50 00:00
Minimum _ 15,2 C 18,9 C 14,4 C 14,5 C 12,9 C 0,0 C 53 % 42 % 0 % 1011,9 hPa - 0,0 km/h (0 Bft) - - - 0,0 UV-I 12,7 C 12,9 C 0,0 km/h (0 Bft)
_ Max-Zeit 14:20 20:15 00:00 13:40 13:40 09:00 06:07 06:45 07:45 22:20 17:09 14:10 - - 08:10 14:15 19:20 13:40 13:15
Maximum _ 24,4 C 20,6 C 25,5 C 29,9 C 29,9 C 8,7 C 86 % 80 % 100 % 1014,6 hPa 0,7 l/m 4,8 km/h
W (1 Bft)
- - 10 min 3,9 UV-I 18,5 C 29,9 C 11,4 km/h
W-SW (2 Bft)
Durchschnitt _ 19,3 C 19,7 C 20,8 C 20,9 C 20,1 C 2,0 C 75 % 62 % 36 % 1013,2 hPa #1,4 l/m 0,8 km/h (0 Bft) S - #7:00 h 1,3 UV-I 14,6 C 20,1 C 1,1 km/h (1 Bft)
2010 www.wetterstation-wechselburg.de